Regional Weather Roundup
Issued by NWS Cleveland, OH

Home | Current Version | Previous Version | Graphics & Text | Print | Product List | Glossary On
Versions: 1 2 3 4 5 6 7 8 9 10 11 12 13 14 15 16 17 18 19 20 21 22 23 24 25 26 27 28 29 30 31 32 33 34 35 36 37 38 39 40 41 42 43 44 45 46 47 48 49 50
000
ASUS41 KCLE 261400
RWRCLE
OHIO REGIONAL WEATHER ROUNDUP
NATIONAL WEATHER SERVICE WILMINGTON, OH
1000 AM EDT SUN APR 26 2015

NOTE: "FAIR" INDICATES FEW OR NO CLOUDS BELOW 12,000 FEET WITH NO
SIGNIFICANT WEATHER AND/OR OBSTRUCTIONS TO VISIBILITY.

OHZ001>008-015>018-024>027-034-035-043-044-261500-
   NORTHWEST OHIO

CITY           SKY/WX    TMP DP  RH WIND       PRES   REMARKS
DEFIANCE       SUNNY     48  30  49 NE14      29.91R
FINDLAY        SUNNY     48  34  58 NE15      29.87R
TOLEDO EXPRESS SUNNY     48  28  46 NE9       29.89S
TOLEDO EXEC    SUNNY     46  30  53 NE9       29.90S
LIMA           SUNNY     44  35  70 N12       29.87R
$$

OHZ009>014-019>023-028>033-038-089-261500-
   NORTHEAST OHIO

CITY           SKY/WX    TMP DP  RH WIND       PRES   REMARKS
CLE-HOPKINS    SUNNY     45  36  70 N9        29.88R
CLE-LAKEFRONT  SUNNY     44  36  73 N13       29.86R
CUY CO. ARPT   NOT AVBL
LORAIN-ELYRIA  SUNNY     45  34  65 N9        29.86S
ASHTABULA      SUNNY     47  30  51 VRB6      29.85S
AKRON-CANTON   SUNNY     50  28  42 NE10      29.81R
WOOSTER        NOT AVBL
MANSFIELD      SUNNY     46  31  55 NE12      29.82S
YOUNGSTOWN     MOSUNNY   48  28  46 NE10      29.82R
$$

OHZ042-051>053-060>062-070>072-077>081-261500-
  SOUTHWEST OHIO

CITY           SKY/WX    TMP DP  RH WIND       PRES   REMARKS
CINC-COVINGTON MOSUNNY   48  35  60 N12       29.83R
CINC-LUNKEN    SUNNY     49  35  58 NE9       29.84R
HAMILTON       SUNNY     48  35  60 N10       29.85R
DAYTON         NOT AVBL
WRIGHT-PAT AFB NOT AVBL
DAYTON GENERAL CLOUDY    47  34  60 N14       29.83R
WILMINGTON     PTSUNNY   45  35  68 N15       29.81R
$$

OHZ036-037-039>041-045>050-054>059-063>069-073>076-082>088-261500-
  CENTRAL AND SOUTHEAST OHIO

CITY           SKY/WX    TMP DP  RH WIND       PRES   REMARKS
COLUMBUS       MOSUNNY   48  34  58 N13       29.80R
OSU AIRPORT    SUNNY     47  33  58 N15       29.81R
BOLTON FIELD   SUNNY     45  34  65 NE10      29.81
RICKENBACK AFB NOT AVBL
NEWARK         MOSUNNY   48  33  56 N6        29.80R
MARION         SUNNY     46  34  62 NE16      29.84R
LANCASTER      MOSUNNY   47  35  63 NE12      29.80R
ZANESVILLE     MOSUNNY   46  31  55 NE7       29.78S
NEW PHILLY     SUNNY     49  30  48 NE9       29.80S
$$


USA.gov is the U.S. government's official web portal to all federal, state and local government web resources and services.